Year,Month,Day,Hour,Minute,Value (Times are PST for temperature in C)
2020,10,06,00,00,13.40
2020,10,06,00,01,13.30
2020,10,06,00,02,13.30
2020,10,06,00,03,13.30
2020,10,06,00,05,13.30
2020,10,06,00,06,13.30
2020,10,06,00,07,13.30
2020,10,06,00,08,13.30
2020,10,06,00,09,13.30
2020,10,06,00,10,13.30
2020,10,06,00,11,13.30
2020,10,06,00,12,13.30
2020,10,06,00,13,13.20
2020,10,06,00,14,13.20
2020,10,06,00,15,13.20
2020,10,06,00,16,13.20
2020,10,06,00,17,13.30
2020,10,06,00,18,13.20
2020,10,06,00,19,13.20
2020,10,06,00,20,13.20
2020,10,06,00,21,13.20
2020,10,06,00,22,13.30
2020,10,06,00,23,13.20
2020,10,06,00,24,13.20
2020,10,06,00,25,13.20
2020,10,06,00,26,13.20
2020,10,06,00,28,13.20
2020,10,06,00,30,13.20
2020,10,06,00,31,13.20
2020,10,06,00,32,13.20
2020,10,06,00,33,13.20
2020,10,06,00,34,13.20
2020,10,06,00,35,13.20
2020,10,06,00,36,13.10
2020,10,06,00,37,13.10
2020,10,06,00,39,13.10
2020,10,06,00,41,13.10
2020,10,06,00,42,13.10
2020,10,06,00,43,13.10
2020,10,06,00,45,13.10
2020,10,06,00,46,13.00
2020,10,06,00,47,13.00
2020,10,06,00,48,13.00
2020,10,06,00,49,13.00
2020,10,06,00,50,13.00
2020,10,06,00,51,13.00
2020,10,06,00,52,13.10
2020,10,06,00,53,13.10
2020,10,06,00,54,13.10
2020,10,06,00,55,13.20
2020,10,06,00,56,13.20
2020,10,06,00,57,13.20
2020,10,06,00,58,13.20
2020,10,06,00,59,13.20
2020,10,06,01,00,13.20
2020,10,06,01,01,13.20
2020,10,06,01,02,13.10
2020,10,06,01,03,13.10
2020,10,06,01,04,13.10
2020,10,06,01,05,13.10
2020,10,06,01,06,13.10
2020,10,06,01,07,13.10
2020,10,06,01,08,13.10
2020,10,06,01,09,13.00
2020,10,06,01,10,13.00
2020,10,06,01,11,12.90
2020,10,06,01,12,13.00
2020,10,06,01,13,12.90
2020,10,06,01,14,12.90
2020,10,06,01,15,12.90
2020,10,06,01,16,12.90
2020,10,06,01,17,12.90
2020,10,06,01,18,12.90
2020,10,06,01,19,12.90
2020,10,06,01,20,12.90
2020,10,06,01,21,12.90
2020,10,06,01,22,12.90
2020,10,06,01,23,12.90
2020,10,06,01,24,12.90
2020,10,06,01,25,12.90
2020,10,06,01,26,12.90
2020,10,06,01,27,12.90
2020,10,06,01,28,12.80
2020,10,06,01,29,12.80
2020,10,06,01,30,12.80
2020,10,06,01,31,12.80
2020,10,06,01,32,12.80
2020,10,06,01,33,12.80
2020,10,06,01,34,12.80
2020,10,06,01,35,12.80
2020,10,06,01,36,12.80
2020,10,06,01,37,12.70
2020,10,06,01,38,12.70
2020,10,06,01,39,12.80
2020,10,06,01,40,12.80
2020,10,06,01,41,12.80
2020,10,06,01,42,12.80
2020,10,06,01,43,12.80
2020,10,06,01,44,12.80
2020,10,06,01,45,12.80
2020,10,06,01,46,12.80
2020,10,06,01,47,12.80
2020,10,06,01,48,12.70
2020,10,06,01,49,12.70
2020,10,06,01,50,12.70
2020,10,06,01,51,12.70
2020,10,06,01,52,12.70
2020,10,06,01,53,12.70
2020,10,06,01,54,12.70
2020,10,06,01,55,12.70
2020,10,06,01,56,12.70
2020,10,06,01,57,12.70
2020,10,06,01,58,12.70
2020,10,06,01,59,12.70
2020,10,06,02,00,12.70
2020,10,06,02,01,12.70
2020,10,06,02,02,12.70
2020,10,06,02,03,12.70
2020,10,06,02,04,12.70
2020,10,06,02,05,12.70
2020,10,06,02,06,12.70
2020,10,06,02,07,12.70
2020,10,06,02,08,12.60
2020,10,06,02,09,12.60
2020,10,06,02,10,12.60
2020,10,06,02,11,12.60
2020,10,06,02,12,12.60
2020,10,06,02,13,12.60
2020,10,06,02,14,12.60
2020,10,06,02,15,12.60
2020,10,06,02,16,12.60
2020,10,06,02,17,12.60
2020,10,06,02,18,12.60
2020,10,06,02,19,12.60
2020,10,06,02,20,12.60
2020,10,06,02,21,12.60
2020,10,06,02,22,12.50
2020,10,06,02,23,12.50
2020,10,06,02,24,12.50
2020,10,06,02,25,12.50
2020,10,06,02,26,12.40
2020,10,06,02,27,12.40
2020,10,06,02,28,12.40
2020,10,06,02,29,12.40
2020,10,06,02,30,12.40
2020,10,06,02,31,12.40
2020,10,06,02,32,12.40
2020,10,06,02,33,12.40
2020,10,06,02,34,12.40
2020,10,06,02,35,12.40
2020,10,06,02,36,12.40
2020,10,06,02,37,12.40
2020,10,06,02,38,12.40
2020,10,06,02,39,12.40
2020,10,06,02,40,12.40
2020,10,06,02,41,12.40
2020,10,06,02,42,12.40
2020,10,06,02,43,12.40
2020,10,06,02,44,12.40
2020,10,06,02,45,12.40
2020,10,06,02,46,12.40
2020,10,06,02,47,12.40
2020,10,06,02,48,12.40
2020,10,06,02,49,12.40
2020,10,06,02,50,12.40
2020,10,06,02,51,12.40
2020,10,06,02,52,12.40
2020,10,06,02,53,12.40
2020,10,06,02,54,12.40
2020,10,06,02,55,12.40
2020,10,06,02,56,12.40
2020,10,06,02,57,12.40
2020,10,06,02,58,12.40
2020,10,06,02,59,12.40
2020,10,06,03,00,12.50
2020,10,06,03,01,12.50
2020,10,06,03,02,12.50
2020,10,06,03,03,12.50
2020,10,06,03,04,12.40
2020,10,06,03,05,12.40
2020,10,06,03,06,12.40
2020,10,06,03,07,12.40
2020,10,06,03,08,12.40
2020,10,06,03,09,12.40
2020,10,06,03,10,12.30
2020,10,06,03,11,12.30
2020,10,06,03,12,12.30
2020,10,06,03,13,12.30
2020,10,06,03,14,12.30
2020,10,06,03,15,12.30
2020,10,06,03,16,12.30
2020,10,06,03,17,12.30
2020,10,06,03,18,12.30
2020,10,06,03,19,12.30
2020,10,06,03,20,12.30
2020,10,06,03,21,12.40
2020,10,06,03,22,12.40
2020,10,06,03,23,12.40
2020,10,06,03,24,12.40
2020,10,06,03,25,12.40
2020,10,06,03,26,12.40
2020,10,06,03,27,12.40
2020,10,06,03,28,12.40
2020,10,06,03,29,12.40
2020,10,06,03,30,12.40
2020,10,06,03,31,12.40
2020,10,06,03,32,12.40
2020,10,06,03,33,12.40
2020,10,06,03,34,12.40
2020,10,06,03,35,12.40
2020,10,06,03,36,12.40
2020,10,06,03,37,12.40
2020,10,06,03,38,12.40
2020,10,06,03,39,12.40
2020,10,06,03,40,12.40
2020,10,06,03,41,12.40
2020,10,06,03,42,12.40
2020,10,06,03,43,12.40
2020,10,06,03,44,12.40
2020,10,06,03,45,12.40
2020,10,06,03,46,12.40
2020,10,06,03,47,12.40
2020,10,06,03,48,12.40
2020,10,06,03,49,12.40
2020,10,06,03,50,12.40
2020,10,06,03,51,12.40
2020,10,06,03,52,12.40
2020,10,06,03,53,12.40
2020,10,06,03,54,12.40
2020,10,06,03,55,12.50
2020,10,06,03,56,12.50
2020,10,06,03,57,12.50
2020,10,06,03,58,12.50
2020,10,06,03,59,12.50
2020,10,06,04,00,12.50
2020,10,06,04,01,12.60
2020,10,06,04,02,12.60
2020,10,06,04,03,12.60
2020,10,06,04,04,12.60
2020,10,06,04,05,12.60
2020,10,06,04,06,12.60
2020,10,06,04,07,12.60
2020,10,06,04,08,12.60
2020,10,06,04,09,12.60
2020,10,06,04,10,12.60
2020,10,06,04,11,12.60
2020,10,06,04,12,12.60
2020,10,06,04,13,12.60
2020,10,06,04,14,12.60
2020,10,06,04,15,12.60
2020,10,06,04,16,12.60
2020,10,06,04,17,12.60
2020,10,06,04,18,12.60
2020,10,06,04,19,12.60
2020,10,06,04,20,12.60
2020,10,06,04,21,12.60
2020,10,06,04,22,12.70
2020,10,06,04,23,12.60
2020,10,06,04,24,12.70
2020,10,06,04,25,12.70
2020,10,06,04,26,12.70
2020,10,06,04,27,12.70
2020,10,06,04,28,12.70
2020,10,06,04,29,12.70
2020,10,06,04,30,12.70
2020,10,06,04,31,12.70
2020,10,06,04,32,12.80
2020,10,06,04,33,12.80
2020,10,06,04,34,12.80
2020,10,06,04,35,12.80
2020,10,06,04,36,12.80
2020,10,06,04,37,12.80
2020,10,06,04,38,12.80
2020,10,06,04,39,12.80
2020,10,06,04,40,12.80
2020,10,06,04,41,12.80
2020,10,06,04,42,12.80
2020,10,06,04,43,12.80
2020,10,06,04,44,12.80
2020,10,06,04,45,12.80
2020,10,06,04,46,12.90
2020,10,06,04,47,12.90
2020,10,06,04,48,12.90
2020,10,06,04,49,12.90
2020,10,06,04,50,12.90
2020,10,06,04,51,12.90
2020,10,06,04,52,12.90
2020,10,06,04,53,12.90
2020,10,06,04,54,12.90
2020,10,06,04,55,12.90
2020,10,06,04,56,12.90
2020,10,06,04,57,12.90
2020,10,06,04,58,12.90
2020,10,06,04,59,12.90
2020,10,06,05,00,12.90
2020,10,06,05,01,12.90
2020,10,06,05,02,12.90
2020,10,06,05,03,12.90
2020,10,06,05,04,12.90
2020,10,06,05,05,12.90
2020,10,06,05,06,12.90
2020,10,06,05,07,12.90
2020,10,06,05,08,12.90
2020,10,06,05,09,12.90
2020,10,06,05,10,12.90
2020,10,06,05,11,12.90
2020,10,06,05,12,12.90
2020,10,06,05,13,12.90
2020,10,06,05,14,12.90
2020,10,06,05,15,12.90
2020,10,06,05,16,12.90
2020,10,06,05,17,12.90
2020,10,06,05,18,12.90
2020,10,06,05,19,12.90
2020,10,06,05,20,12.90
2020,10,06,05,21,12.90
2020,10,06,05,22,12.90
2020,10,06,05,23,12.90
2020,10,06,05,24,12.90
2020,10,06,05,25,12.90
2020,10,06,05,26,12.90
2020,10,06,05,27,12.90
2020,10,06,05,28,12.90
2020,10,06,05,29,12.90
2020,10,06,05,30,13.00
2020,10,06,05,31,13.00
2020,10,06,05,32,13.00
2020,10,06,05,33,13.00
2020,10,06,05,34,13.10
2020,10,06,05,35,13.10
2020,10,06,05,36,13.10
2020,10,06,05,37,13.10
2020,10,06,05,38,13.10
2020,10,06,05,39,13.10
2020,10,06,05,40,13.10
2020,10,06,05,41,13.10
2020,10,06,05,42,13.10
2020,10,06,05,43,13.10
2020,10,06,05,44,13.10
2020,10,06,05,45,13.10
2020,10,06,05,46,13.10
2020,10,06,05,47,13.10
2020,10,06,05,48,13.10
2020,10,06,05,49,13.10
2020,10,06,05,50,13.10
2020,10,06,05,51,13.10
2020,10,06,05,52,13.10
2020,10,06,05,53,13.10
2020,10,06,05,54,13.10
2020,10,06,05,55,13.10
2020,10,06,05,56,13.10
2020,10,06,05,57,13.10
2020,10,06,05,58,13.10
2020,10,06,05,59,13.10
2020,10,06,06,00,13.10
2020,10,06,06,01,13.10
2020,10,06,06,02,13.10
2020,10,06,06,03,13.10
2020,10,06,06,04,13.10
2020,10,06,06,05,13.10
2020,10,06,06,06,13.10
2020,10,06,06,07,13.10
2020,10,06,06,08,13.10
2020,10,06,06,09,13.10
2020,10,06,06,10,13.10
2020,10,06,06,11,13.10
2020,10,06,06,12,13.10
2020,10,06,06,13,13.10
2020,10,06,06,14,13.10
2020,10,06,06,15,13.10
2020,10,06,06,16,13.10
2020,10,06,06,17,13.10
2020,10,06,06,18,13.10
2020,10,06,06,19,13.10
2020,10,06,06,20,13.20
2020,10,06,06,21,13.10
2020,10,06,06,22,13.10
2020,10,06,06,23,13.10
2020,10,06,06,24,13.10
2020,10,06,06,25,13.10
2020,10,06,06,26,13.10
2020,10,06,06,27,13.20
2020,10,06,06,28,13.20
2020,10,06,06,29,13.20
2020,10,06,06,30,13.10
2020,10,06,06,31,13.20
2020,10,06,06,32,13.10
2020,10,06,06,33,13.20
2020,10,06,06,34,13.20
2020,10,06,06,35,13.10
2020,10,06,06,36,13.20
2020,10,06,06,37,13.20
2020,10,06,06,38,13.20
2020,10,06,06,39,13.20
2020,10,06,06,40,13.20
2020,10,06,06,41,13.20
2020,10,06,06,42,13.20
2020,10,06,06,43,13.20
2020,10,06,06,44,13.20
2020,10,06,06,45,13.20
2020,10,06,06,46,13.20
2020,10,06,06,47,13.20
2020,10,06,06,48,13.20
2020,10,06,06,49,13.20
2020,10,06,06,50,13.20
2020,10,06,06,51,13.20
2020,10,06,06,52,13.20
2020,10,06,06,53,13.20
2020,10,06,06,54,13.20
2020,10,06,06,55,13.20
2020,10,06,06,56,13.20
2020,10,06,06,57,13.20
2020,10,06,06,58,13.20
2020,10,06,06,59,13.20
2020,10,06,07,00,13.20
2020,10,06,07,01,13.20
2020,10,06,07,02,13.20
2020,10,06,07,03,13.20
2020,10,06,07,04,13.20
2020,10,06,07,05,13.20
2020,10,06,07,06,13.20
2020,10,06,07,07,13.20
2020,10,06,07,08,13.20
2020,10,06,07,09,13.20
2020,10,06,07,10,13.20
2020,10,06,07,11,13.20
2020,10,06,07,12,13.20
2020,10,06,07,13,13.20
2020,10,06,07,14,13.20
2020,10,06,07,15,13.20
2020,10,06,07,16,13.20
2020,10,06,07,17,13.20
2020,10,06,07,18,13.20
2020,10,06,07,19,13.20
2020,10,06,07,20,13.20
2020,10,06,07,21,13.20
2020,10,06,07,22,13.20
2020,10,06,07,23,13.20
2020,10,06,07,24,13.20
2020,10,06,07,25,13.20
2020,10,06,07,26,13.20
2020,10,06,07,27,13.20
2020,10,06,07,28,13.20
2020,10,06,07,29,13.30
2020,10,06,07,30,13.20
2020,10,06,07,31,13.30
2020,10,06,07,32,13.30
2020,10,06,07,33,13.30
2020,10,06,07,34,13.30
2020,10,06,07,35,13.30
2020,10,06,07,36,13.30
2020,10,06,07,37,13.30
2020,10,06,07,38,13.30
2020,10,06,07,39,13.30
2020,10,06,07,40,13.30
2020,10,06,07,41,13.30
2020,10,06,07,42,13.30
2020,10,06,07,43,13.30
2020,10,06,07,44,13.30
2020,10,06,07,45,13.30
2020,10,06,07,46,13.30
2020,10,06,07,47,13.30
2020,10,06,07,48,13.30
2020,10,06,07,49,13.30
2020,10,06,07,50,13.30
2020,10,06,07,51,13.30
2020,10,06,07,52,13.30
2020,10,06,07,53,13.30
2020,10,06,07,55,13.30
2020,10,06,07,56,13.30
2020,10,06,07,57,13.40
2020,10,06,07,58,13.30
2020,10,06,07,59,13.30
2020,10,06,08,00,13.40
2020,10,06,08,02,13.30
2020,10,06,08,03,13.30
2020,10,06,08,04,13.30
2020,10,06,08,05,13.30
2020,10,06,08,06,13.30
2020,10,06,08,07,13.30
2020,10,06,08,08,13.30
2020,10,06,08,10,13.30
2020,10,06,08,11,13.30
2020,10,06,08,12,13.30
2020,10,06,08,13,13.30
2020,10,06,08,14,13.30
2020,10,06,08,15,13.30
2020,10,06,08,16,13.30
2020,10,06,08,17,13.30
2020,10,06,08,19,13.30
2020,10,06,08,21,13.30
2020,10,06,08,22,13.30
2020,10,06,08,23,13.30
2020,10,06,08,24,13.40
2020,10,06,08,25,13.40
2020,10,06,08,27,13.30
2020,10,06,08,28,13.30
2020,10,06,08,29,13.30
2020,10,06,08,30,13.30
2020,10,06,08,31,13.30
2020,10,06,08,32,13.40
2020,10,06,08,33,13.40
2020,10,06,08,34,13.40
2020,10,06,08,35,13.40
2020,10,06,08,36,13.40
2020,10,06,08,37,13.40
2020,10,06,08,39,13.40
2020,10,06,08,40,13.40
2020,10,06,08,41,13.40
2020,10,06,08,42,13.40
2020,10,06,08,43,13.40
2020,10,06,08,44,13.50
2020,10,06,08,45,13.50
2020,10,06,08,46,13.50
2020,10,06,08,47,13.50
2020,10,06,08,48,13.60
2020,10,06,08,49,13.60
2020,10,06,08,50,13.60
2020,10,06,08,51,13.60
2020,10,06,08,52,13.60
2020,10,06,08,53,13.70
2020,10,06,08,54,13.70
2020,10,06,08,55,13.70
2020,10,06,08,56,13.70
2020,10,06,08,57,13.70
2020,10,06,08,59,13.70
2020,10,06,09,00,13.80
2020,10,06,09,01,13.80
2020,10,06,09,02,13.80
2020,10,06,09,03,13.80
2020,10,06,09,04,13.80
2020,10,06,09,05,13.80
2020,10,06,09,06,13.80
2020,10,06,09,07,13.80
2020,10,06,09,08,13.80
2020,10,06,09,09,13.80
2020,10,06,09,10,13.80
2020,10,06,09,11,13.90
2020,10,06,09,12,13.90
2020,10,06,09,13,13.90
2020,10,06,09,14,13.90
2020,10,06,09,15,13.90
2020,10,06,09,16,13.90
2020,10,06,09,17,13.90
2020,10,06,09,18,13.90
2020,10,06,09,19,13.90
2020,10,06,09,20,13.90
2020,10,06,09,21,13.90
2020,10,06,09,22,13.90
2020,10,06,09,23,13.90
2020,10,06,09,24,13.90
2020,10,06,09,25,13.90
2020,10,06,09,26,13.90
2020,10,06,09,27,13.90
2020,10,06,09,28,14.00
2020,10,06,09,29,14.00
2020,10,06,09,30,14.00
2020,10,06,09,31,14.00
2020,10,06,09,32,14.00
2020,10,06,09,33,14.00
2020,10,06,09,34,14.00
2020,10,06,09,35,14.00
2020,10,06,09,36,14.00
2020,10,06,09,37,14.00
2020,10,06,09,38,14.00
2020,10,06,09,39,14.00
2020,10,06,09,40,14.00
2020,10,06,09,41,14.00
2020,10,06,09,42,14.00
2020,10,06,09,43,14.00
2020,10,06,09,44,14.10
2020,10,06,09,45,14.10
2020,10,06,09,46,14.10
2020,10,06,09,47,14.10
2020,10,06,09,48,14.10
2020,10,06,09,49,14.10
2020,10,06,09,50,14.10
2020,10,06,09,51,14.10
2020,10,06,09,52,14.10
2020,10,06,09,53,14.10
2020,10,06,09,54,14.10
2020,10,06,09,55,14.10
2020,10,06,09,56,14.10
2020,10,06,09,57,14.10
2020,10,06,09,58,14.10
2020,10,06,09,59,14.10
2020,10,06,10,00,14.10
2020,10,06,10,01,14.20
2020,10,06,10,02,14.20
2020,10,06,10,03,14.20
2020,10,06,10,04,14.20
2020,10,06,10,05,14.20
2020,10,06,10,06,14.20
2020,10,06,10,07,14.20
2020,10,06,10,08,14.30
2020,10,06,10,09,14.30
2020,10,06,10,10,14.30
2020,10,06,10,11,14.30
2020,10,06,10,12,14.30
2020,10,06,10,13,14.30
2020,10,06,10,14,14.30
2020,10,06,10,15,14.30
2020,10,06,10,16,14.40
2020,10,06,10,17,14.30
2020,10,06,10,18,14.40
2020,10,06,10,19,14.40
2020,10,06,10,20,14.40
2020,10,06,10,21,14.40
2020,10,06,10,22,14.40
2020,10,06,10,23,14.40
2020,10,06,10,24,14.40
2020,10,06,10,25,14.40
2020,10,06,10,26,14.50
2020,10,06,10,27,14.60
2020,10,06,10,28,14.60
2020,10,06,10,29,14.60
2020,10,06,10,30,14.60
2020,10,06,10,31,14.70
2020,10,06,10,32,14.70
2020,10,06,10,33,14.70
2020,10,06,10,34,14.70
2020,10,06,10,35,14.70
2020,10,06,10,36,14.70
2020,10,06,10,37,14.70
2020,10,06,10,38,14.70
2020,10,06,10,39,14.80
2020,10,06,10,40,14.80
2020,10,06,10,41,14.80
2020,10,06,10,42,14.80
2020,10,06,10,43,14.80
2020,10,06,10,45,14.90
2020,10,06,10,46,14.90
2020,10,06,10,47,14.90
2020,10,06,10,48,14.90
2020,10,06,10,49,14.90
2020,10,06,10,50,14.90
2020,10,06,10,51,15.00
2020,10,06,10,52,15.00
2020,10,06,10,53,15.00
2020,10,06,10,54,15.00
2020,10,06,10,55,15.00
2020,10,06,10,57,15.10
2020,10,06,10,58,15.10
2020,10,06,10,59,15.10
2020,10,06,11,00,15.10
2020,10,06,11,01,15.20
2020,10,06,11,02,15.20
2020,10,06,11,03,15.20
2020,10,06,11,04,15.20
2020,10,06,11,05,15.20
2020,10,06,11,06,15.20
2020,10,06,11,07,15.30
2020,10,06,11,08,15.30
2020,10,06,11,09,15.30
2020,10,06,11,10,15.30
2020,10,06,11,12,15.30
2020,10,06,11,13,15.30
2020,10,06,11,14,15.40
2020,10,06,11,15,15.40
2020,10,06,11,16,15.40
2020,10,06,11,17,15.40
2020,10,06,11,18,15.40
2020,10,06,11,19,15.40
2020,10,06,11,20,15.50
2020,10,06,11,21,15.50
2020,10,06,11,23,15.60
2020,10,06,11,25,15.60
2020,10,06,11,26,15.60
2020,10,06,11,27,15.60
2020,10,06,11,28,15.60
2020,10,06,11,31,15.70
2020,10,06,11,32,15.70
2020,10,06,11,33,15.70
2020,10,06,11,34,15.80
2020,10,06,11,35,15.80
2020,10,06,11,36,15.80
2020,10,06,11,37,15.80
2020,10,06,11,38,15.80
2020,10,06,11,40,15.90
2020,10,06,11,41,15.90
2020,10,06,11,42,15.90
2020,10,06,11,43,15.90
2020,10,06,11,44,15.90
2020,10,06,11,46,15.90
2020,10,06,11,47,15.90
2020,10,06,11,48,15.90
2020,10,06,11,49,15.90
2020,10,06,11,50,15.90
2020,10,06,11,51,16.00
2020,10,06,11,52,16.00
2020,10,06,11,53,16.10
2020,10,06,11,54,16.10
2020,10,06,11,55,16.20
2020,10,06,11,57,16.30
2020,10,06,11,58,16.30
2020,10,06,11,59,16.40
2020,10,06,12,00,16.50
2020,10,06,12,01,16.50
2020,10,06,12,02,16.60
2020,10,06,12,03,16.60
2020,10,06,12,04,16.70
2020,10,06,12,05,16.70
2020,10,06,12,06,16.80
2020,10,06,12,07,16.80
2020,10,06,12,08,16.90
2020,10,06,12,09,17.00
2020,10,06,12,10,17.10
2020,10,06,12,11,17.10
2020,10,06,12,12,17.10
2020,10,06,12,13,17.20
2020,10,06,12,14,17.30
2020,10,06,12,15,17.40
2020,10,06,12,16,17.50
2020,10,06,12,17,17.60
2020,10,06,12,18,17.60
2020,10,06,12,19,17.70
2020,10,06,12,20,17.80
2020,10,06,12,21,17.80
2020,10,06,12,22,17.80
2020,10,06,12,23,17.80
2020,10,06,12,24,17.90
2020,10,06,12,25,17.90
2020,10,06,12,26,17.90
2020,10,06,12,27,17.90
2020,10,06,12,28,17.90
2020,10,06,12,29,17.90
2020,10,06,12,30,17.90
2020,10,06,12,31,18.00
2020,10,06,12,32,18.00
2020,10,06,12,33,18.10
2020,10,06,12,34,18.10
2020,10,06,12,35,18.10
2020,10,06,12,36,18.10
2020,10,06,12,37,18.10
2020,10,06,12,38,18.20
2020,10,06,12,39,18.20
2020,10,06,12,40,18.20
2020,10,06,12,41,18.20
2020,10,06,12,42,18.20
2020,10,06,12,43,18.20
2020,10,06,12,44,18.20
2020,10,06,12,45,18.30
2020,10,06,12,46,18.20
2020,10,06,12,47,18.20
2020,10,06,12,48,18.20
2020,10,06,12,49,18.30
2020,10,06,12,50,18.30
2020,10,06,12,51,18.40
2020,10,06,12,52,18.50
2020,10,06,12,53,18.60
2020,10,06,12,54,18.70
2020,10,06,12,55,18.80
2020,10,06,12,56,18.90
2020,10,06,12,57,18.90
2020,10,06,12,58,19.00
2020,10,06,12,59,19.10
2020,10,06,13,00,19.10
2020,10,06,13,01,19.20
2020,10,06,13,02,19.20
2020,10,06,13,03,19.30
2020,10,06,13,04,19.30
2020,10,06,13,05,19.40
2020,10,06,13,07,19.50
2020,10,06,13,08,19.60
2020,10,06,13,09,19.60
2020,10,06,13,10,19.60
2020,10,06,13,11,19.60
2020,10,06,13,12,19.60
2020,10,06,13,13,19.60
2020,10,06,13,14,19.60
2020,10,06,13,15,19.60
2020,10,06,13,16,19.60
2020,10,06,13,17,19.40
2020,10,06,13,18,19.40
2020,10,06,13,19,19.30
2020,10,06,13,20,19.30
2020,10,06,13,21,19.40
2020,10,06,13,22,19.50
2020,10,06,13,23,19.50
2020,10,06,13,24,19.60
2020,10,06,13,25,19.60
2020,10,06,13,26,19.60
2020,10,06,13,28,19.70
2020,10,06,13,29,19.70
2020,10,06,13,30,19.70
2020,10,06,13,31,19.70
2020,10,06,13,32,19.70
2020,10,06,13,33,19.70
2020,10,06,13,34,19.80
2020,10,06,13,35,19.80
2020,10,06,13,36,19.80
2020,10,06,13,37,19.80
2020,10,06,13,38,19.90
2020,10,06,13,39,19.90
2020,10,06,13,40,19.90
2020,10,06,13,41,19.90
2020,10,06,13,42,19.90
2020,10,06,13,43,20.00
2020,10,06,13,44,20.10
2020,10,06,13,45,20.10
2020,10,06,13,46,20.20
2020,10,06,13,47,20.20
2020,10,06,13,49,20.30
2020,10,06,13,50,20.30
2020,10,06,13,51,20.40
2020,10,06,13,52,20.40
2020,10,06,13,53,20.40
2020,10,06,13,55,20.40
2020,10,06,13,56,20.40
2020,10,06,13,57,20.40
2020,10,06,13,58,20.40
2020,10,06,13,59,20.50
2020,10,06,14,00,20.60
2020,10,06,14,01,20.60
2020,10,06,14,02,20.60
2020,10,06,14,03,20.70
2020,10,06,14,04,20.70
2020,10,06,14,05,20.70
2020,10,06,14,06,20.70
2020,10,06,14,07,20.80
2020,10,06,14,08,20.80
2020,10,06,14,09,20.90
2020,10,06,14,10,20.90
2020,10,06,14,11,20.90
2020,10,06,14,12,20.90
2020,10,06,14,13,20.90
2020,10,06,14,14,20.90
2020,10,06,14,16,21.00
2020,10,06,14,17,21.20
2020,10,06,14,18,21.20
2020,10,06,14,19,21.30
2020,10,06,14,20,21.40
2020,10,06,14,21,21.40
2020,10,06,14,22,21.40
2020,10,06,14,23,21.50
2020,10,06,14,24,21.50
2020,10,06,14,25,21.40
2020,10,06,14,26,21.40
2020,10,06,14,27,21.40
2020,10,06,14,28,21.30
2020,10,06,14,29,21.30
2020,10,06,14,30,21.40
2020,10,06,14,31,21.40
2020,10,06,14,32,21.50
2020,10,06,14,33,21.50
2020,10,06,14,34,21.60
2020,10,06,14,35,21.60
2020,10,06,14,36,21.60
2020,10,06,14,37,21.60
2020,10,06,14,38,21.60
2020,10,06,14,39,21.60
2020,10,06,14,40,21.70
2020,10,06,14,42,21.80
2020,10,06,14,44,21.90
2020,10,06,14,45,22.10
2020,10,06,14,46,22.20
2020,10,06,14,47,22.20
2020,10,06,14,48,22.30
2020,10,06,14,49,22.30
2020,10,06,14,50,22.30
2020,10,06,14,51,22.40
2020,10,06,14,52,22.40
2020,10,06,14,53,22.40
2020,10,06,14,55,22.60
2020,10,06,14,57,22.60
2020,10,06,14,58,22.60
2020,10,06,14,59,22.60
2020,10,06,15,01,22.70
2020,10,06,15,02,22.70
2020,10,06,15,03,22.80
2020,10,06,15,04,22.80
2020,10,06,15,05,22.80
2020,10,06,15,06,22.90
2020,10,06,15,08,22.90
2020,10,06,15,10,22.90
2020,10,06,15,11,22.90
2020,10,06,15,12,23.00
2020,10,06,15,13,23.10
2020,10,06,15,14,23.10
2020,10,06,15,15,23.20
2020,10,06,15,16,23.20
2020,10,06,15,18,23.20
2020,10,06,15,19,23.20
2020,10,06,15,20,23.30
2020,10,06,15,22,23.30
2020,10,06,15,23,23.30
2020,10,06,15,24,23.20
2020,10,06,15,25,23.20
2020,10,06,15,26,23.20
2020,10,06,15,27,23.30
2020,10,06,15,28,23.30
2020,10,06,15,30,23.50
2020,10,06,15,31,23.60
2020,10,06,15,32,23.70
2020,10,06,15,33,23.80
2020,10,06,15,34,23.80
2020,10,06,15,35,23.90
2020,10,06,15,36,23.90
2020,10,06,15,37,24.00
2020,10,06,15,38,24.10
2020,10,06,15,39,24.10
2020,10,06,15,40,24.20
2020,10,06,15,41,24.20
2020,10,06,15,42,24.20
2020,10,06,15,43,24.20
2020,10,06,15,44,24.30
2020,10,06,15,45,24.30
2020,10,06,15,46,24.30
2020,10,06,15,47,24.30
2020,10,06,15,48,24.40
2020,10,06,15,49,24.40
2020,10,06,15,50,24.40
2020,10,06,15,51,24.50
2020,10,06,15,52,24.50
2020,10,06,15,53,24.40
2020,10,06,15,54,24.30
2020,10,06,15,56,24.30
2020,10,06,15,57,24.20
2020,10,06,15,58,24.20
2020,10,06,15,59,24.20
2020,10,06,16,00,24.20
2020,10,06,16,01,24.20
2020,10,06,16,02,24.30
2020,10,06,16,03,24.20
2020,10,06,16,04,24.20
2020,10,06,16,05,24.20
2020,10,06,16,06,24.20
2020,10,06,16,07,24.20
2020,10,06,16,08,24.20
2020,10,06,16,09,24.20
2020,10,06,16,10,24.20
2020,10,06,16,11,24.20
2020,10,06,16,12,24.30
2020,10,06,16,13,24.30
2020,10,06,16,14,24.40
2020,10,06,16,15,24.40
2020,10,06,16,16,24.40
2020,10,06,16,17,24.50
2020,10,06,16,18,24.60
2020,10,06,16,19,24.60
2020,10,06,16,20,24.60
2020,10,06,16,21,24.60
2020,10,06,16,22,24.60
2020,10,06,16,23,24.60
2020,10,06,16,24,24.60
2020,10,06,16,25,24.60
2020,10,06,16,26,24.50
2020,10,06,16,27,24.40
2020,10,06,16,28,24.40
2020,10,06,16,29,24.40
2020,10,06,16,30,24.40
2020,10,06,16,31,24.40
2020,10,06,16,32,24.40
2020,10,06,16,33,24.40
2020,10,06,16,34,24.40
2020,10,06,16,35,24.40
2020,10,06,16,36,24.40
2020,10,06,16,37,24.40
2020,10,06,16,38,24.40
2020,10,06,16,39,24.40
2020,10,06,16,40,24.40
2020,10,06,16,41,24.40
2020,10,06,16,42,24.40
2020,10,06,16,43,24.40
2020,10,06,16,44,24.30
2020,10,06,16,45,24.30
2020,10,06,16,46,24.30
2020,10,06,16,47,24.20
2020,10,06,16,49,24.20
2020,10,06,16,50,24.20
2020,10,06,16,51,24.20
2020,10,06,16,52,24.20
2020,10,06,16,53,24.10
2020,10,06,16,55,24.00
2020,10,06,16,56,24.00
2020,10,06,16,57,23.90
2020,10,06,16,58,23.90
2020,10,06,16,59,23.80
2020,10,06,17,00,23.80
2020,10,06,17,01,23.80
2020,10,06,17,02,23.70
2020,10,06,17,03,23.70
2020,10,06,17,04,23.60
2020,10,06,17,05,23.60
2020,10,06,17,06,23.50
2020,10,06,17,07,23.50
2020,10,06,17,08,23.40
2020,10,06,17,09,23.40
2020,10,06,17,10,23.30
2020,10,06,17,11,23.30
2020,10,06,17,12,23.20
2020,10,06,17,13,23.20
2020,10,06,17,14,23.10
2020,10,06,17,15,22.90
2020,10,06,17,16,22.80
2020,10,06,17,17,22.80
2020,10,06,17,18,22.70
2020,10,06,17,19,22.70
2020,10,06,17,20,22.60
2020,10,06,17,21,22.60
2020,10,06,17,22,22.60
2020,10,06,17,23,22.60
2020,10,06,17,24,22.50
2020,10,06,17,25,22.50
2020,10,06,17,26,22.50
2020,10,06,17,27,22.40
2020,10,06,17,28,22.40
2020,10,06,17,29,22.30
2020,10,06,17,30,22.30
2020,10,06,17,31,22.20
2020,10,06,17,32,22.20
2020,10,06,17,33,22.10
2020,10,06,17,34,21.90
2020,10,06,17,35,21.90
2020,10,06,17,36,21.80
2020,10,06,17,37,21.80
2020,10,06,17,39,21.70
2020,10,06,17,40,21.70
2020,10,06,17,41,21.60
2020,10,06,17,42,21.60
2020,10,06,17,43,21.50
2020,10,06,17,44,21.40
2020,10,06,17,45,21.40
2020,10,06,17,46,21.40
2020,10,06,17,47,21.30
2020,10,06,17,48,21.30
2020,10,06,17,49,21.20
2020,10,06,17,50,21.10
2020,10,06,17,51,21.10
2020,10,06,17,52,20.90
2020,10,06,17,53,20.90
2020,10,06,17,54,20.80
2020,10,06,17,55,20.80
2020,10,06,17,56,20.70
2020,10,06,17,57,20.70
2020,10,06,17,58,20.60
2020,10,06,18,00,20.50
2020,10,06,18,01,20.40
2020,10,06,18,02,20.40
2020,10,06,18,03,20.30